Location: Newark
(52.4787°S, 179.0532°W)
Time: 00:19:44
(UTC+00:00)

Vanguard 2 Rocket - All Passes

Search period start: 12 November 2019 00:00
Search period end: 22 November 2019 00:00
Orbit: 554 x 3326 km, 32.9° (Epoch: 11 November)

Date Brightness Start Highest point End Pass type
(mag) Time Alt. Az. Time Alt. Az. Time Alt. Az.
12 Nov - 01:54:04 10° NNW 02:07:15 26° NNE 02:17:00 10° ENE daylight
12 Nov - 04:08:45 10° NW 04:21:11 29° N 04:29:30 10° NE daylight
12 Nov - 06:26:04 10° WNW 06:33:46 19° NNW 06:39:21 10° NNE daylight
13 Nov - 00:53:47 10° NNW 01:06:44 23° NNE 01:16:58 10° ENE daylight
13 Nov - 03:07:05 10° NW 03:21:01 31° N 03:30:35 10° ENE daylight
13 Nov - 05:23:45 10° WNW 05:34:20 25° NNW 05:41:31 10° NNE daylight
13 Nov - 23:54:24 10° N 00:06:09 19° NNE 00:16:09 10° ENE daylight
14 Nov - 02:05:45 10° NW 02:20:33 31° N 02:31:16 10° ENE daylight
14 Nov - 04:21:36 10° WNW 04:34:31 30° NNW 04:43:10 10° NE daylight
14 Nov - 06:40:03 10° WNW 06:46:50 17° NW 06:52:00 10° N daylight
14 Nov - 22:56:28 10° N 23:05:37 15° NE 23:14:00 10° ENE daylight
15 Nov - 01:04:56 10° NNW 01:19:55 29° NNE 01:31:30 10° ENE daylight
15 Nov - 03:19:39 10° WNW 03:34:21 33° N 03:44:23 10° NE daylight
15 Nov - 05:37:12 10° WNW 05:47:29 23° NNW 05:54:40 10° NNE daylight
15 Nov - 22:03:17 10° NE 22:05:15 10° NE 22:07:12 10° NE daylight
16 Nov - 00:04:47 10° NNW 00:19:09 26° NNE 00:31:10 10° ENE daylight
16 Nov - 02:18:00 10° NW 02:33:51 34° N 02:45:13 10° ENE daylight
16 Nov - 04:34:45 10° WNW 04:47:45 29° NNW 04:56:34 10° NE daylight
16 Nov - 06:54:54 10° WNW 06:59:41 13° NW 07:03:40 10° NNW daylight
16 Nov - 23:05:33 10° N 23:18:26 21° NNE 23:30:03 10° ENE daylight
17 Nov - 01:16:48 10° NW 01:33:05 33° NNE 01:45:36 10° ENE daylight
17 Nov - 03:32:32 10° WNW 03:47:36 34° NNW 03:57:57 10° NE daylight
17 Nov - 05:51:01 10° WNW 06:00:26 20° NW 06:07:20 10° N daylight
17 Nov - 22:07:41 10° N 22:17:52 16° NE 22:27:39 10° ENE daylight
18 Nov - 00:16:11 10° NNW 00:32:11 31° NNE 00:45:30 10° ENE daylight
18 Nov - 02:30:40 10° WNW 02:47:04 36° N 02:58:53 10° ENE daylight
18 Nov - 04:48:09 10° WNW 05:00:47 27° NNW 05:09:38 10° NNE daylight
18 Nov - 21:13:15 10° NE 21:17:33 11° NE 21:21:52 10° ENE daylight
18 Nov - 23:16:18 10° NNW 23:31:16 27° NNE 23:44:48 10° ENE daylight
19 Nov - 01:29:12 10° NW 01:46:14 37° N 01:59:25 10° ENE daylight
19 Nov - 03:45:42 10° WNW 04:00:43 32° NNW 04:11:16 10° NE daylight
19 Nov - 06:05:29 10° WNW 06:13:10 16° NW 06:19:15 10° N daylight
19 Nov - 22:17:20 10° N 22:30:30 23° NE 22:43:17 10° ENE daylight
20 Nov - 00:28:16 10° NW 00:45:14 36° NNE 00:59:27 10° ENE daylight
20 Nov - 02:43:37 10° WNW 03:00:13 36° N 03:12:22 10° NE daylight
20 Nov - 05:01:54 10° WNW 05:13:38 23° NW 05:22:16 10° NNE daylight
20 Nov - 21:19:42 10° N 21:29:59 17° NE 21:40:29 10° ENE daylight
20 Nov - 23:27:58 10° NNW 23:44:09 33° NNE 23:58:57 10° ENE daylight
21 Nov - 01:41:57 10° WNW 01:59:22 39° N 02:12:59 10° ENE daylight
21 Nov - 03:59:06 10° WNW 04:13:40 30° NNW 04:24:15 10° NNE daylight
21 Nov - 06:21:34 10° WNW 06:25:42 12° NW 06:29:23 10° NNW daylight
21 Nov - 20:25:22 10° NE 20:29:48 11° NE 20:34:22 10° ENE daylight
21 Nov - 22:28:24 10° NNW 22:43:11 28° NNE 22:57:50 10° ENE daylight
